Flag for U.S.A. Weather past 2 weeks in St. Croix Falls, Wisconsin, U.S.A.

Now
19 °F

Overcast.


Feels Like: 19 °F
Forecast: 24 / 49 °F
Wind: No wind

Location: L O Simenstad Municipal Airport


UV Index: 3 (Moderate)

Visibility: 10 mi


Pressure: 30.36 "Hg

Humidity: 100%

Dew point: 19 °F

Location of St. Croix FallsLocation

Historic Weather in St. Croix Falls

°F

St. Croix Falls temperature yesterday

Maximum temperature yesterday: 40 °F (at 5:15 PM)
Minimum temperature yesterday: 25 °F (at 11:35 PM)
Average temperature yesterday: 33 °F

Past Weeks' High & Low Weather Summary

 TemperatureHumidityPressure
High69 °F (Apr 9, 5:15 PM)100% (Apr 3, 6:35 PM)30.36 "Hg (Apr 3, 6:35 PM)
Low15 °F (Apr 5, 6:35 AM)21% (Apr 10, 4:15 PM)29.49 "Hg (Apr 9, 10:15 PM)
Average39 °F70%29.94 "Hg
* Reported Apr 3 4:15 AM — Apr 18 4:55 AM, St. Croix Falls, Weather by CustomWeather, © 2014

Note: Actual official high and low records may vary slightly from our data, if they occured in-between our weather recording intervals... More about our weather records

Advertising

Historic Weather Conditions — Data for Previous 24 hours

 ConditionsComfort  
Time TempWeatherWind HumidityBarometerVisibility
4:55 AM
Apr 18
19 °FPassing clouds.No wind99%30.36 "Hg10 mi
4:35 AM20 °FIce fog.No wind99%30.36 "Hg5 mi
4:15 AM19 °FIce fog.No wind99%30.36 "Hg4 mi
3:55 AM19 °FIce fog.No wind98%30.36 "Hg5 mi
3:35 AM19 °FIce fog.No wind99%30.36 "Hg4 mi
3:15 AM19 °FClear.No wind100%30.36 "Hg7 mi
2:55 AM21 °FClear.No wind100%30.36 "Hg7 mi
2:35 AM21 °FClear.No wind100%30.36 "Hg7 mi
2:15 AM21 °FClear.No wind100%30.36 "Hg7 mi
1:55 AM22 °FClear.No wind98%30.36 "Hg10 mi
1:35 AM22 °FClear.No wind96%30.36 "Hg10 mi
1:15 AM23 °FClear.3 mph99%30.36 "Hg10 mi
12:55 AM23 °FClear.5 mph99%30.36 "Hg10 mi
12:35 AM24 °FClear.No wind96%30.35 "Hg10 mi
12:15 AM24 °FClear.No wind95%30.35 "Hg10 mi
11:55 PM
Apr 17
25 °FClear.No wind99%30.34 "Hg10 mi
11:35 PM25 °FClear.No wind96%30.33 "Hg10 mi
11:15 PM26 °FClear.No wind93%30.33 "Hg10 mi
10:55 PM26 °FClear.No wind96%30.34 "Hg10 mi
10:15 PM28 °FClear.No wind92%30.34 "Hg10 mi
9:55 PM28 °FClear.3 mph90%30.34 "Hg10 mi
9:35 PM29 °FClear.No wind83%30.34 "Hg10 mi
9:15 PM31 °FClear.No wind81%30.33 "Hg10 mi
8:55 PM31 °FSunny.No wind78%30.33 "Hg10 mi
8:35 PM32 °FSunny.No wind75%30.32 "Hg10 mi
8:15 PM34 °FSunny.No wind72%30.31 "Hg10 mi
7:55 PM37 °FSunny.No wind64%30.31 "Hg10 mi
7:35 PM38 °FSunny.No wind60%30.31 "Hg10 mi
7:15 PM38 °FSunny.No wind61%30.31 "Hg10 mi
6:55 PM38 °FSunny.No wind61%30.31 "Hg10 mi
6:15 PM39 °FSunny.5 mph59%30.31 "Hg10 mi
5:55 PM39 °FSunny.6 mph58%30.32 "Hg10 mi
5:15 PM40 °FSunny.6 mph56%30.32 "Hg10 mi
4:55 PM39 °FSunny.6 mph58%30.31 "Hg10 mi
4:15 PM39 °FPartly sunny.9 mph58%30.31 "Hg10 mi
3:55 PM39 °FPartly sunny.8 mph60%30.30 "Hg10 mi
3:35 PM39 °FPartly sunny.9 mph60%30.30 "Hg10 mi
3:15 PM38 °FOvercast.7 mph63%30.30 "Hg10 mi
2:55 PM38 °FOvercast.8 mph64%30.29 "Hg10 mi
2:35 PM38 °FOvercast.10 mph62%30.29 "Hg10 mi
2:15 PM37 °FOvercast.10 mph64%30.29 "Hg10 mi
1:55 PM37 °FOvercast.12 mph67%30.28 "Hg10 mi
1:35 PM37 °FOvercast.9 mph67%30.28 "Hg10 mi
1:15 PM37 °FOvercast.7 mph69%30.28 "Hg10 mi
12:55 PM36 °FOvercast.9 mph72%30.28 "Hg10 mi
11:55 AM33 °FOvercast.7 mph87%30.29 "Hg10 mi
11:15 AM32 °FOvercast.6 mph90%30.28 "Hg10 mi
10:55 AM32 °FOvercast.8 mph90%30.26 "Hg10 mi
10:35 AM31 °FLow clouds.10 mph92%30.25 "Hg10 mi
10:15 AM31 °FLow clouds.9 mph92%30.24 "Hg10 mi
9:55 AM31 °FLow clouds.9 mph93%30.23 "Hg10 mi
9:35 AM31 °FLow clouds.8 mph93%30.21 "Hg10 mi
9:15 AM31 °FLow clouds.12 mph93%30.20 "Hg10 mi
8:55 AM31 °FLow clouds.9 mph94%30.19 "Hg10 mi
8:35 AM31 °FLow clouds.10 mph95%30.18 "Hg10 mi
8:15 AM31 °FLow clouds.9 mph96%30.17 "Hg10 mi
7:55 AM31 °FLow clouds.9 mph96%30.16 "Hg10 mi
7:35 AM31 °FLow clouds.8 mph98%30.16 "Hg10 mi
7:15 AM31 °FLow clouds.8 mph99%30.15 "Hg7 mi
6:55 AM31 °FLow clouds.8 mph98%30.14 "Hg10 mi
6:35 AM30 °FLow clouds.8 mph98%30.13 "Hg10 mi
6:15 AM30 °FMostly cloudy.7 mph97%30.12 "Hg10 mi
5:55 AM30 °FLow clouds.8 mph97%30.11 "Hg10 mi
5:35 AM30 °FLow clouds.9 mph97%30.09 "Hg10 mi
5:15 AM30 °FLow clouds.10 mph98%30.08 "Hg10 mi
Weather by CustomWeather, © 2014

See weather overview